User: anonymous   Login
Location: Key Biscayne
(25.6930°N, 80.1630°W)
Time: 07:41:33
(UTC-04:00)
Language:

CZ-2D R/B - Orbit

View from above orbital plane
View from above orbital plane
View from above satellite
View from above satellite

Ground track
Ground track

The orbit data is extracted from the following two-line orbital elements,

1 28738U 05024B   15146.13887122  .00001409  00000-0  92510-4 0  9993
2 28738 097.5891 183.0718 0014330 073.2894 286.9906 15.09189955542149
Epoch (UTC): 26 May 2015 03:19:58
Eccentricity: 0.0014330
inclination: 97.5891°
perigee height: 529 km
apogee height: 548 km
right ascension of ascending node: 183.0718°
argument of perigee: 73.2894°
revolutions per day: 15.09189955
mean anomaly at epoch: 286.9906°
orbit number at epoch: 54214

The dashed part of the orbit path shows where the satellite is in the earth's shadow,  

DLR